sat.trackr.live / text

‹ back to catalog

STARLINK-4156

NORAD 53038 · 2022-076BE

PAYLOAD ACTIVE UNKNOWN

§ Identity

Operator
Country
US
Launch date
2022-07-07
Launch site
AFETR
Launch vehicle
Mass (kg)
RCS (m²)

Purposes: comms

External: N2YO · Heavens-Above · Gunter

§ Orbital elements

Epoch: 2026-05-25T02:43:58.082016Z

Period
95.44 min
Inclination
53.2154°
Eccentricity
0.0001118
Mean motion
15.08839590 rev/d
Perigee alt
539.0 km
Apogee alt
540.5 km
Semi-major
6,917.9 km
B*
4.4012e-5
RAAN
91.0386°
Arg perigee
82.6558°
Mean anomaly
277.4562°
Rev number
21,466

§ Raw data

STARLINK-41561 53038U 22076BE  26145.11386669  .00000413  00000+0  44012-4 0  99962 53038  53.2154  91.0386 0001118  82.6558 277.4562 15.08839590214663

JSON: /api/v1/satellites/53038 · /tle

For live sub-satellite position, see the globe view (requires WebGL).

§ Visibility from observer

Set your observer location to see the next 7 days of passes ≥ 10°. The values pass through the URL so the page stays shareable.

No JS? Fill the form by hand. The geolocation button needs JavaScript.